Flag for Turkey Weather past 2 weeks in Gelibolu, Turkey

Now
74 °F

Clear.


Feels Like: 75 °F
Forecast: 60 / 81 °F
Wind: 7 mph from Southwest

Location: Canakkale

Current Time: Sep 23, 2014 at 1:34:19 AM

Latest Report: Sep 23, 2014 at 12:00 AM


Visibility: 13 mi

Pressure: 29.75 "Hg

Humidity: 77%

Dew point: 66 °F

Location of GeliboluLocation

Historic Weather in Gelibolu — Graph

°F

Gelibolu temperature yesterday

Maximum temperature yesterday: 78 °F (at 2:00 PM)
Minimum temperature yesterday: 62 °F (at 6:00 AM)
Average temperature yesterday: 73 °F

Past Weeks' High & Low Weather Summary

 TemperatureHumidityPressure
High85 °F (Sep 12, 4:00 PM)90% (Sep 8, 6:00 AM)30.22 "Hg (Sep 8, 6:00 AM)
Low58 °F (Sep 20, 6:00 AM)28% (Sep 10, 5:00 PM)29.75 "Hg (Sep 23, 12:00 AM)
Average75 °F59%29.95 "Hg
* Reported Midnight between Sep 7 and Sep 8 — Midnight between Sep 22 and Sep 23, Gelibolu, Weather by CustomWeather, © 2014

Note: Actual official high and low records may vary slightly from our data, if they occured in-between our weather recording intervals... More about our weather records

Advertising

Gelibolu weather history for previous 24 hours

 ConditionsComfort  
Time TempWeatherWind HumidityBarometerVisibility
12:00 AM
Sep 23
74 °FClear.7 mph77%29.75 "Hg12 mi
9:00 PM
Sep 22
74 °FClear.7 mph86%29.77 "Hg12 mi
8:00 PM74 °FPassing clouds.10 mph86%29.77 "Hg12 mi
7:00 PM75 °FPartly sunny.10 mph79%29.77 "Hg12 mi
6:00 PM76 °FPartly sunny.10 mph78%29.78 "Hg12 mi
5:00 PM77 °FPartly sunny.14 mph71%29.79 "Hg12 mi
4:00 PM77 °FSunny.15 mph69%29.80 "Hg12 mi
3:00 PM76 °FSunny.14 mph71%29.81 "Hg12 mi
2:00 PM78 °FPassing clouds.10 mph65%29.83 "Hg12 mi
1:00 PM77 °FPassing clouds.10 mph67%29.85 "Hg12 mi
12:00 PM76 °FScattered clouds.9 mph66%29.86 "Hg12 mi
11:00 AM73 °FScattered clouds.5 mph69%29.88 "Hg12 mi
10:00 AM71 °FPassing clouds.1 mph68%29.87 "Hg12 mi
9:00 AM67 °FSunny.1 mph76%29.87 "Hg12 mi
6:00 AM62 °FPassing clouds.3 mph83%29.88 "Hg12 mi
3:00 AM64 °FPassing clouds.2 mph79%29.90 "Hg12 mi
Weather by CustomWeather, © 2014

See weather overviewHow to use our weather pages